Location: Buchdorf
(48.7842°N, 10.8275°E)
Time: 01:27:46
(UTC+00:00)

GRACE-FO 1 - Pass Details

Date: 09 April 2020
Orbit: 483 x 504 km, 89.0° (Epoch: 30 May)

Event Time Altitude Azimuth Distance (km) Brightness Sun altitude
Exits shadow 19:52:02 29° 176° (S) 938 5.6 -17.6°
Maximum altitude 19:53:50 86° 88° (E) 509 4.5 -17.8°
Drops below altitude 10° 19:57:34 10° 1° (N) 1,713 7.8 -18.3°
Sets 19:59:40 0° 1° (N) 2,598 8.8 -18.6°
